User: anonymous   Login
Location: Champaign/Urbana Astronomical Society Observatory
(40.0333°N, 88.2833°W)
Time: 17:27:18
(UTC-06:00)
Language:

LilacSat-2 - Orbit

View from above orbital plane
View from above orbital plane
View from above satellite
View from above satellite

Ground track
Ground track

The orbit data is extracted from the following two-line orbital elements,

1 40908U 15049K   19318.84436654  .00000237  00000-0  16663-4 0  9990
2 40908  97.4839 316.8351 0017301  50.9654  33.2011 15.13889718229375
Epoch (UTC): 14 November 2019 20:15:53
Eccentricity: 0.0017301
inclination: 97.4839°
perigee height: 512 km
apogee height: 536 km
right ascension of ascending node: 316.8351°
argument of perigee: 50.9654°
revolutions per day: 15.13889718
mean anomaly at epoch: 33.2011°
orbit number at epoch: 22937

The dashed part of the orbit path shows where the satellite is in the earth's shadow,  

DLR